This is the latest recevied weather packets stored in our database for station/object KD8PH. If no packets are shown the sender has not sent any weather packets the latest 10 day(s).
| Time | Temp. | Humidity | Pressure | Rain* | Wind** | Luminosity | Snow |
|---|---|---|---|---|---|---|---|
| 1777817742 | 12.22° C | 71% | 1020.8 hPa | 0 mm | - | - | - |
| 1777817136 | 12.22° C | 73% | 1020.8 hPa | 0 mm | - | - | - |
| 1777816554 | 12.22° C | 73% | 1020.6 hPa | 0 mm | - | - | - |
| 1777815938 | 11.67° C | 71% | 1020.7 hPa | 0 mm | - | - | - |
| 1777815334 | 11.67° C | 75% | 1020.8 hPa | 0 mm | - | - | - |
| 1777814740 | 11.67° C | 76% | 1020.8 hPa | 0 mm | - | - | - |
| 1777814140 | 11.67° C | 74% | 1020.7 hPa | 0 mm | - | - | - |
| 1777813536 | 11.67° C | 76% | 1020.6 hPa | 0 mm | - | - | - |
| 1777812942 | 11.11° C | 77% | 1020.4 hPa | 0 mm | - | - | - |
| 1777812337 | 10.56° C | 78% | 1020.2 hPa | 0 mm | - | - | - |
| 1777811734 | 10.56° C | 80% | 1020.2 hPa | 0 mm | - | - | - |
| 1777811139 | 10.56° C | 79% | 1020.2 hPa | 0 mm | - | - | - |
| 1777810534 | 10.56° C | 78% | 1020.2 hPa | 0 mm | - | - | - |
| 1777809938 | 10° C | 84% | 1020.1 hPa | 0 mm | - | - | - |
| 1777809338 | 8.89° C | 86% | 1019.9 hPa | 0 mm | - | - | - |
| 1777808745 | 8.33° C | 88% | 1019.9 hPa | 0 mm | - | - | - |
| 1777808135 | 7.78° C | 90% | 1019.7 hPa | 0 mm | - | - | - |
| 1777807534 | 7.78° C | 90% | 1019.6 hPa | 0 mm | - | - | - |
| 1777806937 | 7.22° C | 90% | 1019.5 hPa | 0 mm | - | - | - |
| 1777806337 | 7.22° C | 89% | 1019.4 hPa | 0 mm | - | - | - |
| 1777805741 | 7.22° C | 89% | 1019.3 hPa | 0 mm | - | - | - |
| 1777805154 | 7.22° C | 88% | 1019.2 hPa | 0 mm | - | - | - |
| 1777804553 | 7.78° C | 88% | 1019.2 hPa | 0 mm | - | - | - |
| 1777803935 | 8.33° C | 86% | 1019.1 hPa | 0 mm | - | - | - |
| 1777803336 | 8.33° C | 88% | 1019 hPa | 0 mm | - | - | - |
* Rain latest hour (hover to see other rain measurements)
** Current wind speed in m/s (hover to see current wind gust speed)